Regional Weather Roundup
Issued by NWS Mobile, AL

Home | Current Version | Previous Version | Text Only | Print | Product List | Glossary On
Versions: 1 2 3 4 5 6 7 8 9 10 11 12 13 14 15 16 17 18 19 20 21 22 23 24 25 26 27 28 29 30 31 32 33 34 35 36 37 38 39 40 41 42 43 44 45 46 47 48 49 50
000
ASUS44 KMOB 011310
RWRMOB
REGIONAL WEATHER ROUNDUP
NATIONAL WEATHER SERVICE MOBILE AL
700 AM CST SUN MAR 01 2015

NOTE: "FAIR" INDICATES FEW OR NO CLOUDS BELOW 12,000 FEET WITH NO
      SIGNIFICANT WEATHER AND/OR OBSTRUCTIONS TO VISIBILITY.

  * THESE STATIONS ARE PART OF THE UNIVERSITY OF SOUTH ALABAMA
    MESONET AND ARE NOT UNDER NWS OR FAA QUALITY CONTROL.

ALZ061>064-011400-
COASTAL ALABAMA

CITY           SKY/WX    TMP DP  RH WIND       PRES   REMARKS
MOBILE REG APT FOG       48  48 100 E9        30.37R VSB 3/4
BROOKLEY FIELD CLOUDY    51  50  96 NE7       30.39R FOG
USA CAMPUS*      N/A     50  50 100 NE6       30.38R
DOG RIVER*     NOT AVBL


CITY           SKY/WX    TMP DP  RH WIND       PRES   REMARKS
MOUNT VERNON*    N/A     48  46  93 NE2       30.38F
SARALAND*      NOT AVBL
BAY MINETTE*   NOT AVBL
LOXLEY*          N/A     48  48 100 NE7       30.36S
ROBERTSDALE*     N/A     48  48 100 CALM      30.36S
FAIRHOPE*        N/A     50  50 100 E9        30.36R
ELBERTA*         N/A     50  50 100 E5        30.36R
FOLEY*         NOT AVBL
GRAND BAY*       N/A     50  50 100 NE6       30.35R
DAUPHIN ISLND* NOT AVBL
BON SCOUR NWR* NOT AVBL
GULF SHORES    FOG       50  50  99 E9        30.36S VSB 1

$$

ALZ051>060-011400-
INTERIOR SOUTHWEST AND SOUTH CENTRAL ALABAMA

CITY           SKY/WX    TMP DP  RH WIND       PRES   REMARKS
GREENVILLE     FOG       47  45  93 E6        30.41R VSB 3/4
EVERGREEN      CLOUDY    48  47  96 E5        30.41R FOG
CASTLEBERRY*   NOT AVBL
ATMORE*          N/A     46  46 100 NE6       30.41R
DIXIE*           N/A     46  46 100 CALM      30.37R
ANDALUSIA/OPP  FOG       50  46  86 E8        30.41R VSB 1/2
ANDALUSIA*       N/A     46  46 100 E8        30.39R
FLORALA APT    FOG       47  46  97 E8        30.42R VSB 1/2
FLORALA*         N/A     46  46 100 NE3       30.37R

$$

FLZ001>006-011400-
WESTERN FLORIDA PANHANDLE

CITY           SKY/WX    TMP DP  RH WIND       PRES   REMARKS
PENSACOLA      FOG       50  49  96 E3        30.38R VSB 1
NAS PENSACOLA  CLOUDY    50  50 100 NE8       30.38R FOG
MILTON         FOG       48  47  96 E6        30.39R VSB 1
WHTNG S FIELD  FOG       51  47  86 NE5       30.39R VSB 3/4


CITY           SKY/WX    TMP DP  RH WIND       PRES   REMARKS
WALNUT HILL*   NOT AVBL
JAY*             N/A     46  46 100 N3        30.40R
DUKE FIELD     CLOUDY    48  47  97 NE6       30.37R FOG
CRESTVIEW      FOG       48  47  96 E7        30.41R VSB 3/4
VALPARAISO     NOT AVBL
DESTIN         CLOUDY    50  49  96 E9        30.38R FOG

$$

MSZ076-079-011400-
INTERIOR SOUTHEAST MISSISSIPPI

CITY           SKY/WX    TMP DP  RH WIND       PRES   REMARKS
LEAKESVILLE*     N/A    N/A N/A N/A E8        30.37R
AGRICOLA*      NOT AVBL

$$

MARINE OBSERVATIONS

STATION/POSITION TIME  TEMP    WIND        PRES    WAVE
                       AIR SEA DIR/SP/G            HT/PER
                 (UTC) (F)     (DEG/KT/KT) (MB)    (FT/S)
PASCAGOULA       1300   51      70/  6/  8 1027.6F
PETIT BOIS ISLND 1300   53      60/ 16/ 19 1028.0R
GRAND BAY        1200   51      80/ 10     1027.0S
KATRINA CUT      1200   51      80/ 17     1028.1S
CEDAR POINT      1200   49      80/ 13     1027.4S
E DAUPHIN ISLAND 1256   51      60/ 11/ 13 1027.9R
MIDDLE BAY LIGHT 1200   47      80/ 11     1026.4F
USCG MOBILE BAY  1300   50 52   40/  6/  8 1027.4R
STATE DOCKS      1300                      1028.0F
MEAHER PARK      1200   51      50/  4     1028.4S
WEEKS BAY        1200   51                   N/A
FORT MORGAN      1300          100/ 13/ 17 1027.2R
12 S ORANGE BCH  1300   58 61   90/ 17/ 19 1026.9R   5/ 6
PENSACOLA BAY    1300          100/  2/  5 1028.9R
64 S DAUPHIN ISL 1233   66 71  110/ 21/ 25 1026.1F   7/ 8

$$

SELECTED LOCATIONS ACROSS THE REGION

CITY           SKY/WX    TMP DP  RH WIND       PRES   REMARKS
NEW ORLEANS    DRZL/FOG  56  55  97 E9        30.31R VSB 1/4
GULFPORT       FOG       53  52  96 E9        30.34R VSB 1
PASCAGOULA AP  FOG       51  50  96 E7        30.36S VSB 1
PASCAGOULA*    NOT AVBL
HATTIESBURG    CLOUDY    53  51  93 SE6       30.36R FOG
LAUREL         CLOUDY    52  48  87 SE6       30.36R
MERIDIAN       CLOUDY    50  49  96 E8        30.35F
JACKSON        CLOUDY    53  50  89 SE8       30.33R FOG
MONTGOMERY     CLOUDY    47  43  86 E13       30.45R
TROY           FOG       45  44  97 E6        30.44R VSB 1
KINSTON*       NOT AVBL
GENEVA*          N/A     46  45  93 CALM      30.44R
ASHFORD*         N/A     46  46 100 E8        30.39R
DOTHAN         FOG       45  44  97 E12       30.46R VSB 1/2
PANAMA CITY    CLOUDY    48  46  93 NE6       30.39R FOG

$$



USA.gov is the U.S. government's official web portal to all federal, state and local government web resources and services.